Temp
13 13 13 13 13 12 12 12 12 11 11 11 11 10 10 9 9 9 9 9 9 10 10 10 10 10 11 11 11 12 12 13 13 13 14 14 14 14 14 14 14 14 14 14 14 14 14 14 15 15 15 15 15 15 15 15 15 15 15 15 15 16 16 16 16 15 15 16 16 16 17 17 16 16 16 16 16 16 16 16 17 16 17 17 15
13 13 13 12 12 12 12 12 11 11 11 11 10 10 9 9 8 8 8 8 9 9 9 9 9 9 9 9 10 10 11 11 12 12 13 13 14 14 14 14 14 14 14 14 14 14 14 14 14 14 14 15 15 15 15 15 15 14 15 15 15 15 16 16 16 15 15 15 16 16 17 17 16 16 16 16 16 15 15 16 16 16 17 17 16
12 12 12 12 12 12 12 11 11 11 10 10 10 10 9 9 8 8 8 8 8 8 8 8 8 9 9 8 9 9 10 10 11 11 12 12 13 14 14 14 14 14 14 14 14 14 14 14 14 14 14 14 15 15 15 15 15 15 15 15 14 15 16 16 16 16 15 15 16 16 16 16 16 16 16 17 16 16 16 16 16 16 16 17 16
12 12 11 11 11 11 11 11 11 10 10 10 10 9 9 9 8 8 8 7 7 7 7 7 7 8 8 7 7 8 9 9 10 10 10 11 12 13 13 13 14 14 14 14 14 14 14 14 14 15 15 14 14 14 14 14 14 14 14 14 14 15 15 16 16 17 16 15 15 16 16 16 16 16 16 17 16 16 16 16 16 16 16 16 16
11 11 11 11 11 11 10 10 10 10 10 10 9 9 9 9 8 8 8 7 7 7 7 6 6 7 7 7 7 8 8 8 9 9 10 10 11 12 12 13 13 13 14 14 14 14 14 14 15 15 15 14 15 14 14 14 14 14 14 14 15 15 15 16 16 17 16 15 15 15 16 16 16 16 16 16 16 15 15 16 16 16 16 16 16
11 11 11 11 11 10 10 10 10 10 9 9 9 9 9 9 9 8 8 8 7 7 6 6 6 6 6 6 6 6 7 7 8 8 9 9 10 11 12 12 13 13 14 14 14 14 14 14 15 15 15 14 14 14 14 14 14 14 14 14 15 15 15 16 16 16 16 16 15 15 15 16 16 16 16 16 15 15 15 15 15 15 15 15 16
11 11 11 11 10 10 10 10 9 9 9 9 9 9 9 9 9 8 8 8 7 7 6 6 6 5 5 5 5 5 6 7 7 6 7 8 9 10 11 12 12 13 13 14 14 14 14 14 14 15 14 14 14 14 14 14 14 15 15 14 14 15 15 15 15 15 16 16 15 15 15 16 16 16 16 16 16 15 15 14 14 14 15 16 16
12 11 11 11 10 10 10 9 9 9 9 9 9 9 9 9 9 8 8 8 7 7 6 6 6 5 5 5 4 4 4 5 5 5 6 7 9 10 11 11 12 12 13 14 14 14 14 14 14 15 15 14 14 14 14 14 15 15 15 14 14 15 15 15 15 15 15 15 15 15 15 15 16 16 16 16 15 16 16 15 14 14 14 15 16
12 11 11 11 10 10 10 9 9 9 9 9 9 8 8 8 8 8 8 8 8 7 6 6 5 5 4 4 4 3 3 3 3 4 5 6 8 10 11 11 12 12 12 13 14 14 14 14 14 14 14 14 14 14 14 14 14 15 15 15 14 14 14 14 14 14 14 14 15 15 15 15 15 15 15 15 16 16 16 16 15 15 15 15 15
11 11 11 11 10 10 10 10 9 9 9 9 9 8 8 8 8 8 8 8 7 7 7 6 5 5 4 4 4 3 2 2 3 4 5 6 8 10 11 11 12 12 11 12 13 14 14 14 14 14 14 14 14 14 14 14 14 14 15 14 14 14 14 14 14 14 14 14 14 14 14 14 15 15 15 15 16 16 16 16 16 15 15 15 14
11 10 10 10 10 10 10 10 10 9 9 9 9 9 8 8 8 8 7 7 7 7 7 6 5 5 4 4 3 3 2 2 3 4 6 6 7 9 10 10 11 11 11 12 12 13 13 14 14 14 15 15 15 15 14 14 14 14 14 14 14 14 14 14 14 14 14 14 14 14 14 15 15 16 15 15 16 16 16 17 16 16 15 14 14
10 10 10 10 10 10 10 10 10 9 9 9 9 9 8 8 8 7 7 7 7 7 6 6 5 5 4 4 3 3 2 2 3 4 6 7 7 8 8 9 10 10 11 11 12 13 13 14 14 14 15 15 16 16 15 14 14 14 14 15 15 14 14 14 14 14 14 14 14 14 15 15 15 16 16 16 16 16 17 17 17 16 16 15 15
10 10 10 10 10 10 10 10 10 9 9 9 9 9 8 8 8 7 7 7 7 6 6 6 5 4 4 3 3 3 2 3 3 3 5 6 7 7 7 8 9 9 10 11 11 12 13 13 14 14 15 15 15 15 15 14 14 14 15 16 16 14 13 14 14 14 15 15 15 15 15 16 16 16 16 16 16 17 17 17 17 17 16 16 16
10 10 10 10 10 10 10 10 9 9 9 9 8 8 8 8 8 7 7 7 7 6 6 6 5 4 4 3 3 3 3 3 3 3 4 5 6 6 6 6 7 8 8 9 9 10 11 12 13 13 14 14 14 14 15 15 14 14 14 15 15 14 14 14 14 14 14 15 15 15 16 16 16 17 17 16 16 17 17 17 17 17 17 17 18
10 10 10 10 10 10 9 9 9 9 9 8 8 8 8 8 8 8 7 7 7 6 6 6 5 4 4 4 3 3 3 3 3 3 3 4 5 5 5 5 5 6 7 7 7 8 8 10 11 11 12 12 13 13 14 14 14 14 14 14 14 14 14 15 15 15 15 15 15 16 16 16 17 17 17 17 17 18 18 18 17 17 17 18 18
10 10 10 10 9 9 9 9 9 9 8 8 8 8 8 8 8 8 7 7 7 6 6 6 5 5 4 4 3 3 2 3 3 3 3 3 3 3 4 4 4 4 4 5 6 6 6 7 9 9 10 11 12 12 13 13 13 13 14 14 13 14 14 14 14 15 15 15 15 15 16 16 16 17 17 18 18 18 18 18 17 17 17 17 16
10 10 10 9 9 9 9 9 9 9 8 8 8 8 7 7 7 8 7 7 7 6 6 6 5 5 4 4 3 3 3 3 3 3 3 3 3 2 2 2 3 3 3 3 4 5 5 5 6 8 9 10 11 11 12 12 13 13 13 13 13 13 14 14 14 14 14 14 15 15 15 16 17 17 17 18 18 17 17 17 18 18 17 16 15
10 10 10 9 9 9 9 9 9 9 8 8 8 8 7 7 7 7 7 7 7 6 6 6 5 5 5 4 4 3 3 3 3 3 3 3 3 2 2 2 2 2 2 2 3 3 4 4 5 6 7 8 9 10 11 12 12 13 13 13 13 13 14 14 13 13 14 14 14 14 14 15 16 17 17 17 17 17 17 17 18 18 17 16 15
10 10 10 9 9 9 9 9 9 9 8 8 8 8 7 7 7 7 7 7 6 6 6 6 5 5 5 4 4 4 3 3 3 3 3 3 3 2 2 2 2 2 2 2 2 3 3 4 5 5 6 7 9 10 11 11 12 12 13 13 12 12 13 13 13 13 13 13 13 13 13 14 15 16 16 16 16 16 16 17 17 17 17 17 15
10 10 10 9 9 9 9 9 9 9 8 8 8 8 7 7 7 7 7 6 6 6 6 6 5 5 5 4 4 4 3 3 3 3 3 3 3 3 3 2 2 2 2 2 2 2 3 3 4 5 5 7 8 9 10 10 11 12 13 13 12 12 12 12 12 12 12 12 12 12 13 13 14 14 15 15 15 15 15 16 16 16 17 17 16
11 10 10 10 9 9 9 9 9 9 9 8 8 8 7 7 7 6 6 6 6 6 6 5 5 5 4 4 4 4 3 3 3 3 3 3 3 3 3 2 2 2 2 1 1 1 1 2 3 4 5 6 7 8 9 10 11 12 12 12 12 12 12 11 11 11 11 11 11 11 12 12 12 12 13 13 13 14 15 15 15 15 16 16 15
11 10 10 10 10 9 9 9 9 9 9 8 8 8 7 7 6 6 6 6 5 5 5 5 5 4 4 4 4 3 3 3 3 3 3 3 3 3 2 3 3 2 2 1 1 1 1 1 2 3 4 5 5 6 7 9 10 10 11 12 12 12 11 11 10 10 10 10 11 11 11 11 11 11 12 12 12 13 13 13 14 14 15 15 15
11 10 10 10 10 10 9 9 9 9 9 8 8 7 7 6 6 6 6 5 5 5 5 5 5 4 4 3 3 3 3 3 3 3 3 3 3 3 3 3 3 3 2 1 1 1 1 2 2 3 4 5 5 5 6 7 7 8 9 11 11 11 11 10 10 10 9 9 10 10 9 10 10 10 10 11 11 11 11 11 12 13 13 13 13
11 11 11 11 10 10 10 9 9 9 9 8 8 7 7 6 6 6 5 5 5 5 4 4 4 4 3 3 3 3 3 3 3 3 3 3 3 3 3 2 3 3 2 2 2 2 2 2 2 3 4 4 5 5 5 5 5 6 7 9 10 10 10 10 10 9 9 8 8 8 8 8 8 9 9 9 9 10 10 10 10 11 11 11 10
11 11 10 10 11 11 10 10 9 9 9 8 8 7 7 6 6 6 5 5 4 4 4 4 4 4 3 3 3 3 3 3 3 3 3 3 3 3 3 3 2 3 2 2 2 2 3 3 3 3 3 4 4 5 5 4 5 5 5 7 8 8 8 9 9 8 7 7 6 6 7 7 7 8 8 8 9 9 9 9 9 9 9 9 9
11 11 10 10 10 10 10 10 9 9 9 8 8 7 7 7 6 5 5 5 4 4 4 4 3 3 3 3 3 2 2 3 3 2 3 3 3 3 3 3 3 3 3 2 2 3 3 3 3 3 3 3 3 3 3 4 5 5 4 4 5 6 6 6 6 6 5 5 5 5 6 6 6 7 7 7 7 8 8 8 8 8 8 8 8
10 10 10 10 10 10 10 10 10 9 9 9 8 7 7 7 6 5 5 5 4 4 4 3 3 3 3 3 2 2 2 2 3 2 2 2 3 3 3 3 2 2 2 2 2 2 2 2 3 3 3 3 3 3 3 3 4 4 4 3 3 4 4 4 4 4 4 4 4 5 5 6 6 6 7 7 6 7 7 7 7 7 7 7 7
10 10 10 10 10 10 10 10 10 9 9 9 8 8 7 7 6 5 5 5 4 4 4 3 3 3 2 2 2 2 2 2 2 2 2 2 2 3 3 3 2 2 2 2 2 2 2 2 2 3 3 2 2 2 2 2 3 3 3 3 3 3 4 4 3 3 3 4 4 5 5 5 5 6 6 6 6 6 7 7 7 6 7 7 6
10 10 10 10 10 10 10 10 10 9 9 9 8 8 7 7 6 6 5 5 4 4 4 4 3 3 2 2 2 2 2 2 2 2 3 3 3 3 3 3 2 2 2 2 2 2 2 2 1 1 1 0 0 0 0 1 1 2 2 3 3 3 3 4 3 3 3 4 4 5 5 5 5 5 6 6 6 6 6 6 6 6 7 7 6
10 10 10 10 10 10 10 10 9 9 9 9 8 8 8 7 6 6 6 5 5 4 4 4 3 3 3 2 2 2 2 2 2 2 3 3 3 3 3 3 3 2 2 2 3 2 1 0 -0 -0 -0 -1 -1 -1 -1 -1 -0 -0 0 1 2 2 2 2 3 3 3 4 4 5 5 5 5 5 5 5 5 6 6 6 6 6 6 6 6
10 10 10 10 10 9 9 9 9 9 9 9 8 8 8 8 7 6 6 6 5 5 5 4 4 3 3 3 3 2 2 2 2 3 3 3 3 3 3 3 3 3 2 2 2 2 1 0 -0 -1 -1 -1 -1 -1 -1 -1 -1 -1 -0 -0 0 0 1 1 1 2 3 3 4 4 4 4 5 5 5 5 5 5 6 6 6 6 6 6 6
10 10 10 9 9 9 9 9 9 9 9 9 8 8 8 8 7 7 6 6 6 5 5 4 4 3 3 3 3 3 2 2 2 2 3 3 3 3 3 3 3 3 3 3 2 1 1 0 -0 -1 -0 -1 -1 -1 -1 -1 -1 -1 -1 -1 -1 -0 -0 -0 0 1 1 2 2 2 3 3 3 4 4 5 5 5 6 6 6 6 6 6 6
10 9 10 10 9 9 9 9 9 9 9 9 8 8 8 8 8 7 7 6 6 6 5 5 4 4 4 3 3 3 2 2 2 2 2 3 3 3 3 3 3 3 3 3 2 1 1 1 0 -0 -0 -0 -0 -0 -0 -0 -0 -0 -0 -0 -0 -0 -0 -0 0 0 0 0 1 1 1 1 2 2 3 4 4 4 4 5 5 5 5 5 5
9 9 9 9 9 9 9 9 9 9 9 9 8 8 8 8 8 7 7 7 7 6 6 5 4 4 4 4 3 3 2 2 2 2 2 2 2 3 3 3 3 3 3 3 2 2 2 1 0 0 0 0 0 0 -0 -0 -0 -0 -0 -0 -0 0 0 0 0 0 0 0 0 0 1 1 1 1 2 2 3 3 4 4 4 5 5 5 5
9 9 9 9 9 9 9 9 9 9 9 8 8 8 8 8 8 7 7 7 7 7 6 5 5 5 4 4 3 3 3 2 2 2 2 2 2 3 3 3 3 2 3 3 2 2 2 1 1 1 0 0 0 0 0 0 0 0 0 0 0 0 0 0 0 0 0 1 1 1 1 1 1 1 2 2 2 3 3 4 4 4 5 5 5
10 9 9 9 9 9 9 9 9 9 9 9 8 8 8 8 8 8 7 7 7 7 6 5 5 5 5 4 4 3 3 2 2 2 2 2 2 2 2 2 1 1 2 2 3 2 2 2 1 1 1 1 1 0 0 0 0 1 1 1 1 1 0 0 0 1 1 1 1 1 1 1 1 2 2 2 2 3 3 3 4 4 4 5 5
10 10 10 10 9 9 9 9 9 9 9 9 8 8 8 8 8 8 7 7 7 7 6 6 5 5 5 5 4 4 3 3 2 2 2 2 2 2 2 1 1 1 1 2 2 2 2 2 2 2 1 1 1 1 1 1 1 1 1 1 1 1 1 1 1 1 1 1 1 1 2 2 2 2 2 2 3 3 3 4 4 4 4 5 5
10 10 10 10 10 10 9 9 9 9 9 9 8 8 8 8 8 8 7 7 7 7 6 6 5 5 5 5 4 4 4 3 2 2 2 2 2 2 2 1 1 1 1 2 2 2 2 2 2 2 2 2 2 2 1 1 1 1 1 1 1 1 1 1 1 1 2 2 2 2 2 2 2 3 3 3 3 4 4 4 5 5 5 5 5
10 10 10 10 10 10 10 10 9 9 9 8 8 8 8 8 8 8 8 7 7 7 6 6 5 5 5 5 5 4 4 3 2 2 2 2 2 2 2 1 1 1 1 2 2 2 2 2 2 2 2 2 2 2 2 2 1 1 1 2 2 2 2 2 2 2 2 2 2 2 3 3 3 3 4 4 4 4 5 5 5 5 5 5 5
10 10 10 10 10 10 10 10 9 9 9 9 9 8 8 8 8 8 8 7 7 7 6 6 6 5 5 5 5 4 4 3 3 3 3 2 2 2 2 1 1 1 1 1 2 2 2 2 2 3 3 2 2 2 2 2 2 2 2 2 2 2 2 2 2 3 3 3 3 3 3 3 3 4 4 4 4 5 5 5 5 5 5 5 5
9 9 10 10 10 10 10 10 9 9 9 9 9 9 8 8 8 8 8 7 7 7 6 6 6 6 5 5 5 4 4 4 3 3 3 3 2 2 2 2 1 1 1 1 2 2 2 2 2 2 2 2 3 3 3 3 2 2 2 2 2 2 2 3 3 3 3 3 3 4 4 4 4 4 4 4 4 5 5 5 5 5 5 5 5
9 9 9 10 10 10 10 10 10 9 9 9 9 9 8 8 8 8 8 8 7 7 7 6 6 6 5 5 5 5 4 4 4 3 3 3 3 2 2 2 1 1 1 1 1 2 2 2 2 2 2 2 2 3 3 3 3 3 2 2 2 2 2 3 3 3 3 3 3 4 4 4 4 4 5 5 5 5 5 5 5 5 5 5 5
9 9 9 10 10 10 10 10 10 10 9 9 9 9 9 8 8 8 8 8 7 7 7 7 6 6 6 5 5 5 4 4 4 4 3 3 3 3 3 2 2 2 1 1 1 2 2 2 2 2 2 2 2 2 2 3 3 3 3 3 2 2 2 3 3 3 3 3 4 4 4 4 4 5 5 5 5 5 5 5 5 5 5 5 5
9 9 9 10 10 10 10 10 10 10 10 9 9 9 9 8 8 8 8 8 8 7 7 7 6 6 6 6 5 5 5 4 4 4 4 3 3 3 3 3 2 2 2 2 2 2 2 2 2 2 2 2 2 2 2 2 3 3 3 3 3 3 3 3 3 3 3 3 4 4 4 4 4 4 5 4 5 5 5 4 5 5 5 5 5
9 9 9 10 10 10 10 10 10 10 10 9 9 9 9 8 8 8 8 8 8 7 7 7 7 6 6 6 5 5 5 5 5 4 4 4 3 3 3 3 3 3 2 2 2 2 2 2 2 2 2 2 2 2 2 2 3 3 3 3 3 3 3 2 3 3 3 3 3 3 4 4 4 4 4 4 4 4 4 4 4 4 4 4 5
9 9 9 10 10 9 10 10 9 9 9 9 9 9 9 8 8 8 8 8 8 8 7 7 7 6 6 6 6 6 5 5 5 4 4 4 4 3 3 3 3 3 3 2 2 2 2 2 2 2 2 2 2 2 2 2 2 2 3 3 3 2 2 2 2 3 3 3 3 3 3 3 4 4 4 4 4 4 4 4 4 4 4 4 4
9 9 9 9 9 9 9 9 9 9 9 9 9 9 8 8 8 8 8 8 8 7 7 7 7 6 6 6 6 6 5 5 5 5 4 4 4 4 3 3 3 3 3 3 3 2 2 2 2 2 2 2 2 2 2 2 2 2 2 2 2 2 2 2 2 2 3 3 3 3 3 3 3 4 4 4 4 4 4 4 4 4 4 4 4
9 9 9 9 9 9 9 9 9 9 9 9 9 8 8 8 8 8 8 8 7 7 7 7 7 7 6 6 6 6 6 5 5 5 5 4 4 4 4 4 4 3 3 3 3 3 2 2 2 2 2 2 2 2 2 2 2 2 2 2 2 2 2 2 2 2 2 2 2 3 3 3 3 3 3 3 4 4 4 4 4 4 4 4 4
9 9 9 9 9 9 9 9 9 9 9 9 8 8 8 8 8 8 8 7 7 7 7 7 7 6 6 6 6 6 6 5 5 5 5 5 4 4 4 4 4 4 3 3 3 3 3 3 2 2 2 2 2 2 2 2 2 2 2 2 2 2 2 2 2 2 2 2 2 2 2 2 2 3 3 3 3 3 4 4 4 4 4 4 4
9 9 10 9 9 9 9 9 9 9 9 9 9 8 8 8 8 8 7 7 7 7 7 7 7 6 6 6 6 6 6 5 5 5 5 5 4 4 4 4 4 4 4 4 3 3 3 3 3 3 2 2 2 2 2 2 2 2 2 2 2 2 2 1 1 2 2 2 2 2 2 2 2 2 2 2 3 3 3 3 4 4 4 4 4
9 9 9 10 9 9 9 9 9 9 9 9 9 8 8 8 8 8 7 7 7 7 7 7 6 6 6 6 6 6 6 5 5 5 5 5 4 4 4 4 4 4 4 4 4 3 3 3 3 3 3 2 2 2 2 2 2 2 2 1 1 1 1 1 2 2 2 2 2 2 2 2 2 2 2 2 3 3 3 3 4 4 4 4 4
Height
835 835 835 835 834 833 832 831 830 829 828 827 826 825 824 823 821 819 817 816 814 812 810 808 807 805 802 800 796 792 789 787 785 783 781 779 777 776 775 774 774 774 774 774 774 774 775 775 775 776 778 779 780 781 782 784 786 787 788 789 789 790 791 791 792 793 794 795 796 798 800 801 803 805 807 809 811 814 815 817 818 819 821 823 826
837 837 836 836 835 834 833 832 831 829 828 827 827 826 825 823 822 820 818 816 814 812 811 809 807 805 803 801 797 793 789 787 784 781 779 778 776 775 774 773 773 773 774 774 773 773 773 774 774 775 776 777 777 779 781 782 783 785 786 786 786 787 788 788 789 791 792 793 794 796 798 799 801 803 804 806 808 811 813 814 816 818 819 821 824
838 838 837 837 837 836 835 833 832 830 829 828 827 826 826 824 823 821 819 817 815 813 811 810 808 806 804 801 797 793 790 787 785 782 779 777 775 774 773 772 771 772 772 772 772 772 772 772 772 772 774 775 775 777 778 780 781 783 783 783 783 783 784 785 786 788 789 790 791 793 794 796 798 800 802 804 806 808 810 812 814 816 818 820 822
840 839 839 839 838 837 835 834 832 831 830 829 828 828 827 826 824 822 820 818 816 814 812 810 808 806 804 802 798 795 792 789 786 783 780 777 775 774 773 772 771 770 771 770 770 771 770 769 769 769 770 772 773 774 776 777 779 781 781 781 780 779 780 782 783 784 785 787 788 789 791 793 796 798 800 802 804 806 807 809 811 813 815 818 820
841 840 840 840 839 838 836 835 833 832 831 831 830 829 828 827 825 824 822 820 817 815 813 811 809 807 805 803 800 796 793 790 787 784 781 779 776 774 772 772 771 770 769 768 768 769 769 767 766 766 768 769 769 772 774 776 779 780 780 778 777 777 778 779 780 781 782 783 785 787 789 791 794 796 797 799 801 804 806 807 808 810 813 815 818
842 841 841 841 840 838 837 836 834 834 833 832 831 830 829 828 826 825 823 821 819 817 814 812 811 809 807 805 802 798 795 792 789 785 782 779 776 774 772 771 770 768 767 766 766 767 766 765 765 764 765 766 766 769 772 774 776 777 776 776 776 775 776 776 777 779 780 781 783 785 787 789 791 793 795 796 798 801 803 805 807 808 810 812 815
842 842 842 841 840 839 838 837 836 835 835 834 833 831 830 828 827 826 824 822 820 819 816 814 813 811 808 806 803 800 796 793 790 787 783 780 777 774 772 770 768 767 766 765 765 764 763 763 763 763 763 764 765 767 769 770 771 771 771 774 774 773 773 773 775 776 778 779 781 782 784 786 788 791 793 795 797 799 799 802 805 806 807 809 811
844 844 843 842 841 840 839 838 837 837 836 835 834 832 831 829 828 827 825 823 822 820 818 816 814 812 810 807 805 802 797 793 790 787 783 780 777 774 772 770 768 766 765 764 764 763 762 762 762 762 762 762 763 765 767 767 767 767 768 771 772 771 771 772 773 774 776 777 778 780 782 784 786 788 791 794 796 797 797 798 800 803 805 806 808
845 845 844 843 842 841 840 839 838 837 837 835 834 833 832 830 829 828 826 825 823 821 819 818 815 813 811 809 806 802 799 797 795 791 786 781 777 774 772 770 768 766 764 763 763 761 761 761 760 760 759 760 761 763 765 765 765 766 767 769 770 769 769 770 771 772 773 774 776 777 779 781 783 785 788 789 791 793 795 797 798 799 802 804 806
847 846 845 844 843 842 841 840 839 838 837 836 835 834 832 831 830 829 827 826 824 822 821 819 816 814 812 810 807 804 802 800 798 794 788 783 778 774 772 769 768 766 764 763 761 760 759 759 758 758 757 757 758 760 762 763 763 764 766 767 768 767 766 768 769 769 771 772 773 774 776 778 779 781 783 785 788 791 794 796 797 798 801 803 805
848 848 847 846 844 843 842 841 840 839 838 837 836 834 833 832 830 829 828 826 825 824 822 820 818 816 814 811 809 807 805 802 798 793 788 783 778 774 772 770 768 766 765 763 761 759 759 757 756 755 754 754 755 756 758 760 760 761 762 764 765 765 763 763 764 766 769 770 771 772 773 774 776 777 780 783 786 789 791 793 794 796 799 801 803
850 849 848 847 846 844 843 842 841 840 839 838 837 836 834 833 831 830 829 828 827 825 824 822 820 818 816 813 811 809 806 803 798 793 788 783 779 775 772 770 769 767 765 763 760 759 758 756 754 753 752 751 751 752 754 756 756 757 758 759 760 761 761 761 761 762 764 766 768 769 770 771 773 775 777 780 783 785 787 789 791 793 794 796 798
851 850 849 848 847 846 845 844 843 842 841 840 839 838 836 834 833 832 830 829 828 827 826 824 822 820 817 815 813 811 808 804 798 794 789 784 780 776 773 772 770 769 766 763 761 758 756 754 752 751 751 750 749 749 749 751 753 755 755 755 756 758 760 761 760 760 760 762 764 765 766 768 770 771 772 776 779 782 783 785 787 789 790 791 792
851 851 850 850 849 848 847 846 845 844 843 842 841 839 837 836 835 834 832 831 829 828 827 825 824 822 819 817 815 813 809 806 800 795 791 786 781 778 775 773 772 770 768 765 762 760 757 755 752 750 749 749 748 748 747 748 751 752 752 752 754 756 758 759 759 759 760 760 761 762 763 765 766 767 770 773 776 778 779 780 783 785 786 787 789
853 852 852 851 850 849 848 848 847 846 845 844 843 841 840 838 837 836 834 833 831 830 829 827 825 824 822 819 817 814 812 808 803 798 793 788 784 780 777 775 773 772 769 767 764 762 758 756 753 750 749 748 748 748 747 747 749 750 751 751 752 754 756 757 757 757 758 759 759 760 761 763 764 766 768 771 773 775 776 777 780 784 786 786 788
854 853 853 853 852 851 850 849 849 848 847 846 844 843 842 840 839 838 836 835 834 832 830 829 827 825 823 821 818 816 814 810 805 800 796 791 787 783 780 777 775 773 771 769 766 763 760 757 754 751 749 748 747 747 747 747 748 749 749 749 751 752 753 754 755 755 756 757 758 759 760 761 762 764 766 767 769 772 775 777 779 783 785 785 786
855 854 854 854 853 853 852 851 850 849 848 847 846 845 844 842 841 839 838 837 835 833 832 831 829 827 825 822 820 818 815 812 808 803 799 794 790 786 783 781 778 776 774 771 768 766 763 761 757 753 750 748 747 746 746 747 748 748 748 748 749 750 750 750 751 753 754 755 756 757 758 759 760 762 764 765 766 769 773 775 776 778 780 782 784
856 856 855 855 855 854 854 853 852 850 849 848 847 847 846 844 843 841 840 839 837 836 834 833 831 829 827 824 822 820 817 814 810 806 802 798 794 790 787 784 782 779 776 774 771 768 766 763 759 755 752 750 748 746 745 745 746 746 747 747 747 748 748 747 748 750 751 752 754 755 755 756 758 760 761 763 764 766 769 771 772 775 777 778 780
857 856 856 856 856 855 854 854 853 851 851 850 849 848 847 846 845 844 842 841 839 837 835 834 833 831 829 827 824 821 819 816 812 809 805 801 797 794 791 787 784 781 779 776 773 770 767 764 760 757 755 752 749 747 744 743 743 743 744 745 745 745 746 746 746 747 748 749 751 753 753 754 756 758 759 760 762 764 766 768 770 772 773 774 776
858 857 857 857 856 856 855 854 854 853 852 851 851 850 849 847 846 845 843 842 841 839 837 836 835 833 831 828 826 823 820 817 814 811 807 804 800 797 793 790 787 785 782 779 775 772 769 765 761 758 755 753 750 747 745 743 741 741 742 742 743 743 744 745 746 747 747 748 750 752 753 755 755 756 757 758 760 762 765 766 767 769 770 771 773
858 858 858 857 857 857 856 855 854 854 854 853 852 851 850 848 847 846 845 843 842 840 838 837 836 835 832 830 827 825 822 819 816 812 809 806 803 799 796 793 791 789 786 782 779 776 772 768 764 760 757 754 751 748 745 743 741 740 741 741 741 742 743 744 746 747 749 749 750 752 753 754 755 755 757 758 760 763 764 766 766 767 768 769 770
859 859 858 858 858 857 857 856 855 855 855 854 853 852 851 849 848 846 845 844 842 841 839 838 837 835 833 831 829 826 823 820 817 814 811 808 805 802 799 797 794 791 788 785 782 779 775 772 768 764 761 757 753 749 746 743 741 740 740 740 740 741 742 744 746 748 749 749 750 751 752 753 754 755 756 758 760 762 763 764 765 766 768 769 769
860 860 859 859 858 858 857 857 856 856 855 854 853 852 851 850 848 847 846 844 843 842 840 839 838 836 834 832 829 827 824 821 818 815 813 810 807 804 802 799 796 793 790 788 785 782 779 775 771 768 764 760 756 752 749 745 742 740 740 739 740 741 742 744 746 748 749 750 750 750 752 753 754 755 756 757 759 761 762 764 765 766 768 769 770
861 860 860 860 859 858 858 857 857 856 855 854 854 853 852 850 849 847 846 845 844 842 841 840 838 836 834 832 830 828 825 822 820 817 814 812 809 806 804 801 798 795 792 790 788 785 782 778 775 771 767 763 759 755 752 749 746 743 741 740 741 741 743 745 746 747 749 751 752 752 754 755 755 755 757 758 759 761 762 763 765 766 767 769 771
862 861 860 860 860 859 859 858 858 857 856 855 854 853 852 851 849 848 847 846 845 844 842 841 839 838 836 833 831 829 826 824 821 818 815 813 811 808 806 803 800 798 795 792 790 787 784 781 778 774 769 765 761 757 755 753 750 748 745 742 741 742 744 745 746 748 750 752 754 755 757 758 757 758 759 760 761 761 762 764 766 767 769 771 773
862 862 861 861 860 860 860 859 859 858 856 856 855 854 853 852 850 849 848 847 846 845 843 842 841 839 837 835 833 831 828 825 823 820 817 814 812 810 807 805 803 800 797 794 792 789 786 783 780 776 773 769 765 762 759 758 755 753 750 747 745 745 746 748 748 750 752 754 756 758 759 760 761 761 762 763 763 764 765 766 768 770 772 773 775
863 863 862 862 861 861 860 860 859 859 857 856 856 855 854 853 851 850 849 848 847 846 845 843 842 840 838 836 834 832 829 827 824 822 819 816 814 812 809 807 805 802 799 797 794 791 788 785 782 779 776 773 770 767 765 762 759 757 757 755 753 751 752 754 754 754 755 757 758 760 761 762 763 764 766 766 766 767 768 768 770 773 775 775 777
864 863 863 863 862 862 861 861 860 859 858 857 857 856 855 853 852 851 850 849 848 847 846 845 844 842 840 838 835 833 830 828 826 824 821 819 816 814 811 809 807 804 802 799 797 794 791 787 784 781 779 776 774 772 769 768 765 764 763 763 761 760 759 760 760 760 761 762 762 762 764 765 766 767 769 770 770 771 772 772 774 776 777 777 779
864 864 864 863 863 862 862 861 861 860 859 858 857 856 855 854 853 852 851 851 849 849 848 847 846 844 842 840 837 834 832 830 828 826 824 821 818 816 813 811 809 807 805 803 799 796 793 790 787 785 783 781 779 777 775 774 772 771 770 769 769 767 766 766 766 767 768 767 765 766 767 768 769 771 773 774 775 776 776 776 777 779 779 779 782
864 864 864 864 863 863 862 862 861 861 860 859 858 857 856 855 854 854 853 852 851 850 849 848 847 845 844 842 840 838 836 834 831 828 825 822 819 817 815 814 812 810 808 805 802 798 796 794 792 791 789 787 785 783 782 780 779 778 777 775 774 774 773 773 773 773 773 771 770 770 770 771 773 774 776 778 779 779 779 780 780 781 782 783 785
864 865 864 864 863 863 863 862 862 861 861 860 859 858 857 856 855 854 854 853 852 851 850 849 848 847 845 843 842 840 838 836 832 829 826 823 821 819 817 816 814 812 810 807 804 802 800 799 797 796 794 793 791 789 788 786 784 783 782 781 780 779 779 779 779 778 777 776 775 774 775 776 777 778 779 781 783 783 783 784 784 785 786 788 789
865 865 865 864 864 863 863 862 862 862 861 860 860 859 858 857 856 855 855 854 853 852 851 850 849 848 846 844 842 841 838 836 833 831 828 825 823 821 819 818 816 814 812 809 807 806 805 803 802 800 798 797 796 795 793 791 789 788 787 786 785 784 784 784 783 782 781 780 780 780 780 781 781 782 783 784 786 786 787 788 788 789 790 792 794
865 865 864 864 863 863 863 863 862 862 861 861 860 859 858 858 857 856 856 855 854 853 852 851 850 848 847 845 844 842 840 837 835 832 830 827 825 823 821 819 818 816 814 812 810 809 808 807 806 805 803 801 800 799 797 796 794 792 791 790 790 789 788 788 787 786 785 784 785 785 785 785 785 786 786 787 788 789 790 791 792 793 794 795 797
865 865 864 864 863 863 863 863 863 862 862 861 860 859 859 858 857 857 856 855 854 853 852 852 851 849 848 847 845 843 841 839 836 834 832 829 827 825 823 821 818 817 815 814 813 812 811 810 809 808 807 805 804 802 801 800 798 796 795 794 793 793 792 791 790 789 789 789 789 789 789 789 789 789 790 791 792 793 793 794 795 796 796 797 799
865 865 864 864 864 863 863 863 862 862 862 861 860 860 859 858 858 857 856 855 855 854 853 852 852 851 849 848 846 844 842 840 838 836 834 831 829 827 824 822 820 819 817 817 816 815 814 813 812 812 810 809 808 806 805 803 802 800 799 798 797 797 796 795 795 794 794 793 793 793 793 793 793 793 793 793 794 795 796 797 798 798 799 799 800
865 865 864 864 864 863 863 862 862 861 861 860 860 860 859 859 858 857 857 856 855 854 854 853 853 852 850 848 847 845 844 842 840 837 835 833 831 829 826 825 824 822 820 820 819 818 817 816 815 814 813 812 811 810 808 807 806 805 803 802 801 801 800 800 799 799 798 798 798 798 797 797 797 796 796 797 797 798 799 800 801 801 802 802 803
864 865 865 864 864 864 863 863 862 861 861 860 860 859 859 859 858 857 857 856 855 855 854 854 853 851 850 849 847 846 844 843 841 839 837 835 832 831 829 828 827 825 824 823 821 820 819 819 818 817 816 815 814 813 812 811 810 809 808 807 805 804 804 803 803 802 802 802 801 801 801 800 800 800 799 800 801 801 802 803 803 804 804 805 805
865 865 865 864 864 863 863 862 861 861 861 861 860 859 859 858 858 857 857 856 855 855 854 853 852 851 850 849 848 846 845 844 842 840 838 836 834 833 832 831 829 828 827 825 824 823 822 821 820 819 818 817 816 816 815 813 812 812 811 810 809 808 807 807 806 806 805 805 805 804 804 803 803 803 803 803 803 804 805 805 805 806 806 806 807
865 865 865 864 864 863 862 861 861 861 861 860 860 859 858 858 858 857 856 856 855 855 854 853 852 851 850 849 848 847 845 844 843 841 839 838 837 836 834 833 832 830 829 828 827 825 824 823 822 821 820 820 819 818 817 816 815 814 813 813 812 811 811 810 809 809 808 808 807 807 807 806 806 806 806 805 806 806 806 807 807 807 807 807 807
864 864 864 864 863 863 862 861 861 861 860 860 859 858 858 857 857 856 856 855 855 854 854 853 852 851 851 850 848 847 846 844 843 842 841 840 839 838 836 835 834 832 831 830 829 827 827 825 824 823 823 822 821 820 819 818 817 817 816 815 814 814 813 813 812 811 811 810 810 810 809 809 809 809 808 808 808 808 808 808 809 808 808 808 808
864 864 864 863 863 862 862 861 861 860 860 859 858 858 857 856 856 856 855 855 855 854 853 853 852 851 851 850 849 848 847 845 844 843 842 841 840 839 838 837 836 834 833 832 830 829 828 827 826 826 825 824 823 822 820 819 819 818 818 817 816 816 815 815 814 814 813 813 812 812 812 811 811 811 810 810 810 810 810 810 810 810 809 809 810
863 863 863 863 863 862 862 861 861 860 859 858 857 857 857 856 855 855 855 854 854 854 853 853 852 851 851 850 849 848 847 846 845 844 843 842 841 840 839 838 837 836 835 834 832 831 830 829 828 827 826 826 825 823 822 821 820 820 819 819 819 818 818 817 816 816 815 815 814 813 813 813 812 812 812 812 812 812 812 812 812 811 811 811 811
863 863 862 862 862 862 861 861 861 860 859 858 857 857 856 855 855 855 854 854 853 853 852 852 852 851 850 850 849 848 848 847 846 844 843 843 842 841 840 839 838 837 836 835 834 833 832 830 829 829 828 827 826 825 824 823 822 821 821 821 820 820 819 819 818 818 817 816 816 815 814 814 814 813 813 813 813 813 814 813 813 813 812 812 813
862 862 862 862 862 862 861 861 860 860 858 857 857 857 856 855 855 854 854 853 853 852 852 852 851 851 850 850 849 848 848 847 846 845 844 843 842 841 841 840 839 838 837 835 834 834 833 832 831 830 829 828 828 827 826 825 824 823 823 822 822 822 821 821 820 820 819 818 817 816 816 816 815 815 815 815 815 815 815 815 814 814 814 814 814
862 861 861 861 861 861 861 860 860 859 858 858 857 857 856 856 855 854 854 853 852 852 852 851 850 850 850 850 849 848 847 846 846 845 844 843 842 842 841 840 840 839 837 836 835 834 833 833 832 831 830 830 829 828 827 826 826 825 825 824 824 823 823 823 822 821 821 820 819 818 818 817 817 817 816 817 817 816 816 816 816 816 816 815 815
861 861 861 861 861 861 861 860 860 859 858 858 857 857 856 856 855 855 854 853 852 852 851 851 850 850 850 849 848 848 847 846 846 845 845 844 843 842 842 841 840 839 838 837 836 835 834 833 833 832 831 830 830 829 829 828 828 827 826 826 825 825 825 824 824 823 822 821 821 820 820 819 819 818 818 818 818 817 817 817 817 817 817 817 817
860 860 860 860 860 860 860 860 859 859 858 858 857 857 856 856 856 855 854 854 853 852 851 851 850 850 850 849 848 848 847 847 846 845 845 844 843 843 842 841 840 840 839 837 837 836 835 834 833 833 832 831 831 831 830 829 829 828 828 827 827 826 826 825 825 824 823 822 821 821 821 820 820 819 819 819 819 818 818 818 818 818 818 818 818
859 859 859 859 860 860 859 859 859 858 858 857 857 857 857 856 856 855 854 854 853 852 852 851 851 850 850 849 849 848 847 847 846 846 845 844 843 843 842 841 840 840 839 838 837 836 835 835 834 833 833 832 832 831 831 830 830 829 829 828 828 827 826 825 825 824 824 823 822 822 821 821 821 820 820 820 819 819 819 819 819 819 819 819 819
858 858 858 858 859 859 858 858 858 858 857 857 857 856 856 856 856 855 854 853 853 852 852 851 850 850 850 849 849 848 847 847 846 846 845 844 843 843 842 841 841 840 839 838 837 837 836 835 835 834 833 833 833 832 832 831 830 830 829 828 827 827 826 825 825 825 824 824 823 822 822 822 821 821 821 820 820 820 820 820 820 819 819 819 819
857 857 857 857 857 857 857 857 857 857 856 856 856 855 855 855 855 854 854 853 853 852 852 851 851 850 850 849 849 848 847 847 846 845 845 844 843 843 842 842 841 840 839 838 837 837 836 836 835 834 834 833 833 832 832 831 831 830 829 828 827 826 826 825 825 825 824 824 823 823 822 822 822 821 821 821 820 820 820 820 820 820 820 820 819
856 856 855 856 856 856 856 856 856 855 855 855 854 854 854 853 853 853 853 852 852 852 851 851 851 850 850 849 849 848 847 847 846 845 845 844 843 843 842 842 841 840 839 839 838 837 836 836 835 834 834 833 833 833 833 832 831 829 828 827 826 826 825 825 825 824 824 824 824 823 823 822 822 822 821 821 820 820 820 820 821 821 820 820 820
Wind_Speed
23 22 22 21 22 22 21 22 22 22 22 22 21 22 23 25 26 23 22 22 22 22 23 25 27 29 30 32 32 29 26 24 23 21 20 22 22 22 22 20 20 18 17 18 18 18 18 20 22 24 25 26 27 27 26 26 27 27 26 26 28 27 25 20 11 7 13 22 26 24 26 29 30 29 28 29 33 33 29 26 26 27 26 27 28
22 22 23 23 23 22 22 22 23 23 24 24 23 24 24 26 28 27 25 24 23 24 24 24 26 27 29 33 35 33 30 27 25 22 20 20 21 20 18 16 16 14 13 14 16 16 16 18 21 23 23 24 26 26 25 25 25 25 27 26 26 28 28 24 16 11 11 17 24 24 25 29 30 28 27 31 35 35 31 28 27 27 27 26 29
22 23 24 25 24 24 24 24 24 24 26 25 25 25 25 26 29 30 29 26 25 24 24 24 26 26 26 33 38 37 35 33 29 27 24 21 19 18 16 13 13 13 12 12 13 14 14 15 18 22 22 22 24 25 25 24 23 25 28 29 28 29 30 27 21 16 15 17 23 26 26 29 31 28 27 31 35 34 31 29 27 27 26 26 28
23 24 25 25 26 26 27 27 26 26 27 27 26 26 26 26 29 32 32 31 29 27 26 26 29 28 25 30 39 40 38 38 34 31 29 25 21 18 15 13 12 12 10 10 11 11 13 14 16 20 22 22 24 24 24 24 24 25 28 30 31 31 29 28 25 22 20 19 22 28 29 30 31 27 26 31 34 34 32 29 27 26 25 26 28
24 24 24 25 25 26 27 28 28 27 27 27 26 26 26 25 27 31 32 33 33 32 33 31 30 29 25 27 38 43 41 40 39 35 32 29 25 20 17 15 13 13 11 10 10 10 13 14 15 19 21 24 26 22 19 19 20 22 27 29 31 31 29 29 29 25 24 22 21 25 28 29 28 25 26 32 34 32 31 30 29 27 26 27 28
23 22 23 24 24 25 27 28 28 27 26 26 26 26 26 25 25 29 30 32 33 34 37 37 32 31 28 25 35 45 44 42 41 39 36 33 28 24 21 18 15 13 11 10 10 10 13 15 16 18 20 24 26 21 17 18 19 24 30 28 27 29 29 30 30 25 24 24 22 23 26 28 27 25 26 34 35 31 29 28 29 30 29 30 30
21 21 22 25 25 25 27 28 27 26 25 25 25 25 26 25 25 27 28 30 32 33 35 36 35 36 33 27 32 44 47 45 44 43 39 35 31 28 25 21 17 14 11 10 10 11 13 15 17 18 19 21 23 20 16 19 23 28 32 28 26 28 29 28 28 25 23 23 22 23 26 28 28 26 25 31 34 32 30 28 26 28 31 32 32
19 21 22 24 25 25 26 26 26 26 26 25 26 25 26 26 25 26 27 28 31 32 33 33 34 37 36 30 31 43 50 48 46 45 41 36 32 28 26 24 20 16 12 10 9 10 12 13 15 16 16 17 19 19 17 17 24 28 30 26 25 27 28 26 25 25 23 22 22 24 25 25 27 26 24 25 28 28 30 31 28 29 32 32 32
21 23 23 23 24 24 25 25 25 26 27 27 27 27 27 27 27 28 29 28 28 31 33 33 34 36 36 32 31 41 49 46 44 45 42 36 31 27 25 24 20 16 14 12 10 8 9 10 11 12 13 14 15 16 17 17 21 25 27 26 23 25 27 24 23 23 22 20 22 24 23 22 25 26 24 25 28 27 28 29 29 30 32 32 32
25 27 27 26 24 22 22 24 25 25 27 27 27 27 28 28 28 29 30 30 28 30 32 34 35 36 35 33 32 39 46 45 44 45 42 34 29 25 23 21 19 17 16 15 14 11 8 8 8 9 10 10 11 13 16 18 19 22 26 28 26 25 26 25 23 23 21 19 21 23 22 20 25 29 28 29 30 28 27 27 27 28 29 26 26
27 28 27 27 27 25 22 23 24 24 25 27 27 27 27 27 29 30 31 32 30 29 31 32 34 36 36 34 33 36 43 47 47 48 44 35 28 24 23 22 20 20 20 19 18 14 9 7 9 9 9 9 9 10 13 16 18 20 23 27 28 27 27 27 26 25 23 21 22 24 23 22 26 30 30 30 29 28 30 30 27 27 27 22 18
27 27 26 26 28 28 26 25 27 26 25 26 28 27 26 25 28 30 31 33 32 30 30 30 32 34 35 34 33 35 42 48 50 51 47 39 30 25 24 24 23 23 23 22 20 16 12 12 12 10 10 10 10 9 10 13 17 19 21 25 28 29 29 29 28 29 28 25 22 23 25 26 27 29 30 31 30 29 31 32 30 29 29 26 22
26 26 26 26 27 29 28 27 29 31 30 29 30 30 29 25 25 28 31 32 32 31 30 30 31 33 34 33 32 34 41 48 50 52 50 44 35 29 26 26 25 24 25 24 20 15 12 13 13 11 12 12 12 12 10 11 14 18 21 24 26 27 27 28 28 29 31 30 26 26 28 29 28 31 34 34 31 29 30 31 32 31 31 30 30
26 26 25 26 27 28 28 27 28 31 31 31 31 33 33 29 25 25 29 32 32 31 30 30 30 32 33 33 32 33 39 46 49 51 52 48 42 35 30 28 26 26 26 25 22 19 16 13 13 14 15 14 13 14 13 11 11 15 21 26 26 25 26 26 27 28 30 30 29 29 31 31 30 32 34 32 30 29 32 34 34 32 33 34 35
25 26 26 25 25 27 28 27 28 29 30 31 32 32 34 33 29 25 27 31 31 30 29 28 29 30 32 33 32 33 37 43 46 48 50 49 45 41 37 32 29 27 26 25 24 23 21 18 15 15 15 13 12 11 12 14 13 14 20 25 26 27 26 24 24 26 27 28 28 28 28 28 28 28 27 28 30 30 30 36 38 34 33 33 31
23 26 26 25 26 27 28 27 27 27 28 30 32 32 32 33 32 27 25 28 30 30 28 27 27 29 31 33 33 34 36 41 43 44 47 48 46 43 41 36 32 30 29 28 27 26 25 24 21 18 16 13 11 8 9 11 12 15 18 20 22 24 25 22 21 23 24 24 25 23 22 23 24 22 22 25 29 28 26 30 34 31 27 24 21
22 25 26 25 26 27 27 27 26 26 27 28 31 32 31 31 32 30 26 27 30 30 26 25 26 28 30 31 33 34 36 40 42 41 43 45 43 41 39 36 34 33 31 30 29 28 27 27 25 23 21 17 14 11 9 9 11 16 18 17 17 19 22 22 20 20 21 22 21 19 19 20 21 21 23 22 22 25 27 27 27 26 22 17 14
21 24 24 24 24 24 25 26 25 25 26 26 27 31 31 30 30 30 28 27 30 29 24 22 25 28 30 30 30 32 34 38 41 41 41 42 41 39 37 34 32 33 33 31 31 31 29 27 27 26 24 22 18 14 12 10 12 17 19 17 15 17 22 24 20 18 19 20 20 19 18 20 21 21 24 23 19 22 29 32 30 27 23 18 15
21 22 22 22 22 22 23 24 24 22 22 23 25 27 29 28 28 29 28 28 30 30 26 23 24 27 28 29 30 31 32 36 38 39 40 41 39 37 36 34 32 32 32 31 32 33 31 30 29 27 25 23 21 16 12 9 10 16 19 17 17 20 23 25 23 23 22 21 20 17 16 18 19 19 21 23 20 19 23 29 33 31 27 24 22
19 21 20 20 20 20 20 21 22 20 19 21 24 25 26 26 26 27 27 27 29 31 28 24 25 27 27 28 30 31 32 34 36 36 37 39 39 37 36 34 31 30 30 30 31 32 32 32 31 28 26 24 21 18 14 7 7 15 18 17 19 22 23 23 22 22 22 19 17 15 14 16 16 16 17 17 16 16 16 17 23 27 28 27 27
18 21 20 18 17 18 19 19 20 20 18 18 22 24 24 24 24 25 25 26 28 29 28 25 26 28 29 28 29 31 31 32 34 34 34 36 38 37 36 32 28 27 28 28 29 31 31 32 32 29 26 24 21 19 15 8 6 12 16 16 17 19 20 19 18 18 18 19 17 15 16 15 13 13 12 10 10 15 16 14 15 18 21 24 27
19 20 20 18 14 14 16 18 19 20 19 18 19 22 23 23 23 23 23 24 26 27 26 24 24 27 29 29 29 30 30 31 33 33 31 32 35 36 36 33 28 25 25 27 29 30 30 31 31 28 25 23 22 20 16 11 7 8 13 16 15 14 15 16 16 16 18 19 19 17 15 14 13 12 11 9 8 10 12 11 13 15 17 21 26
17 17 17 18 15 11 12 16 19 18 18 17 17 20 23 23 22 22 23 24 25 26 26 25 24 25 28 29 30 31 30 31 34 33 30 29 30 33 34 34 30 26 23 24 26 28 29 29 29 27 25 24 23 22 20 15 11 7 5 9 9 12 15 17 16 18 19 19 19 18 16 14 15 14 13 13 12 10 9 8 11 14 14 16 20
15 14 14 15 16 13 10 12 16 16 17 17 16 17 21 23 22 22 22 23 24 25 26 25 24 25 27 28 30 31 31 31 33 34 30 27 27 29 31 33 32 28 24 23 23 25 27 28 28 27 26 26 25 24 24 23 20 16 9 9 15 18 20 21 21 21 20 19 18 18 17 17 19 20 18 18 18 17 17 17 17 17 18 18 19
14 17 17 16 17 17 13 11 13 15 17 16 15 16 18 21 22 21 21 22 24 24 25 25 24 24 25 27 29 30 31 32 33 34 31 26 25 27 29 31 31 29 27 24 23 22 22 23 25 27 28 29 28 28 28 28 26 24 22 18 20 21 22 24 26 25 23 21 20 20 19 19 22 24 24 24 24 24 24 26 26 25 25 25 25
13 15 18 18 17 18 18 13 11 13 16 15 14 15 16 18 20 21 20 21 22 23 24 25 25 24 25 27 27 28 31 32 32 34 32 27 25 26 27 28 30 30 28 27 25 23 22 22 23 25 27 30 32 32 32 31 28 28 30 28 25 24 24 24 26 27 26 25 23 22 21 21 22 24 25 26 27 27 28 31 31 29 29 31 31
14 14 15 18 17 16 18 16 12 11 14 15 13 13 14 16 18 19 19 19 21 22 24 25 26 25 25 27 27 27 30 31 31 32 32 28 25 24 24 26 28 30 30 29 28 28 28 27 25 24 24 26 30 32 33 33 33 32 33 33 32 30 29 27 27 28 27 27 26 25 24 23 23 23 23 24 25 26 28 31 31 30 30 33 34
14 14 14 15 16 14 15 18 16 11 12 14 13 11 12 14 15 17 17 16 18 20 22 24 24 24 25 26 27 27 28 31 31 30 30 27 24 22 22 23 25 27 29 30 29 29 30 30 30 30 28 28 29 30 31 31 32 32 32 32 32 32 31 31 30 29 28 29 30 29 27 26 25 24 23 24 24 25 27 29 30 30 31 33 32
12 12 12 13 14 13 13 16 17 14 13 14 13 12 12 12 13 14 14 14 16 18 20 21 23 24 25 26 27 27 29 30 30 29 28 25 22 20 20 20 20 23 26 28 30 31 31 32 32 31 31 31 31 31 30 29 29 28 28 28 28 29 30 31 30 29 28 30 32 32 31 30 29 27 25 24 23 23 25 27 29 29 30 31 30
10 11 12 13 12 12 12 14 16 17 16 15 14 13 13 12 11 12 13 13 14 16 18 19 21 24 26 26 27 26 25 26 27 28 26 23 19 18 18 18 18 20 22 26 30 32 31 29 29 28 28 28 28 28 28 28 28 27 25 25 24 25 26 26 25 25 26 29 31 32 32 32 31 30 28 26 24 24 25 27 29 29 30 29 27
10 10 12 14 13 12 12 12 14 16 17 16 16 16 16 14 11 11 12 14 13 13 15 17 19 22 25 27 27 26 24 23 25 26 26 23 20 18 18 18 19 19 20 25 29 30 28 27 26 25 26 26 25 25 26 26 26 26 25 25 24 23 22 21 20 19 21 23 24 25 27 28 28 29 28 26 25 25 25 26 28 29 28 27 25
10 10 11 13 13 12 12 12 13 14 16 17 17 17 19 18 15 11 12 14 14 13 13 14 17 21 25 26 26 27 28 26 24 24 25 23 20 19 18 18 19 18 20 24 26 25 25 25 24 24 25 24 24 24 25 25 25 25 25 25 24 23 22 20 19 18 18 19 19 19 19 20 22 23 23 23 24 24 25 25 25 26 25 24 24
11 12 12 11 11 11 12 12 12 12 14 16 16 16 18 19 18 14 13 15 16 14 12 12 15 20 25 25 24 25 28 28 24 23 25 24 22 20 19 20 20 19 20 23 24 22 22 22 22 22 23 24 24 24 24 24 24 24 24 24 23 23 23 22 22 22 21 20 20 19 18 17 18 19 19 19 20 20 21 21 21 21 21 21 21
10 12 11 9 8 9 11 10 11 11 12 14 15 15 16 17 17 14 13 15 17 16 13 11 15 20 24 24 22 21 25 28 27 24 23 24 24 22 20 22 25 24 21 20 20 21 21 20 19 20 21 22 23 23 23 23 23 23 23 23 23 23 23 23 23 23 22 21 20 19 18 17 16 17 17 17 17 17 17 16 17 17 18 18 18
11 12 10 8 7 8 10 9 10 10 10 11 13 15 14 14 15 13 12 14 16 16 13 12 14 19 23 23 20 18 21 25 27 26 24 23 23 22 23 25 28 28 25 20 18 19 20 19 18 18 18 19 20 21 22 23 23 23 23 22 22 22 23 23 23 22 20 20 19 17 16 16 16 16 17 17 16 16 15 15 16 17 16 16 18
13 14 12 8 6 7 8 7 8 8 8 9 11 13 12 12 13 13 12 13 14 15 12 10 12 17 21 21 18 17 18 21 25 27 25 23 21 23 25 26 26 27 27 24 19 17 17 18 18 17 18 18 18 18 20 22 23 23 23 23 22 22 21 20 20 19 18 17 16 15 15 15 15 15 16 16 15 15 15 15 16 16 17 18 19
11 12 11 9 5 5 7 5 4 6 8 8 9 11 11 11 12 12 11 13 15 14 10 9 12 17 20 20 19 17 16 17 21 25 27 24 20 21 24 25 24 25 26 26 23 19 17 16 15 15 16 18 18 17 17 17 18 19 20 20 20 21 21 20 18 18 17 16 15 14 14 14 13 13 14 14 14 13 14 14 13 13 15 18 19
8 7 8 9 8 8 10 7 2 5 8 9 10 11 11 11 11 11 10 12 14 12 9 8 12 16 18 18 19 17 14 14 18 23 27 26 22 20 22 23 24 24 24 24 24 23 21 19 16 13 13 14 15 16 16 16 15 15 15 15 15 16 17 18 19 18 17 16 15 14 14 13 13 13 13 13 13 12 11 11 12 12 14 17 18
8 6 7 9 10 11 12 9 4 6 8 9 9 10 11 10 9 10 10 10 11 11 10 8 10 13 14 16 17 17 15 13 16 20 24 24 22 20 20 21 22 22 21 21 22 22 22 23 22 19 16 14 13 13 14 14 14 14 13 13 13 14 14 14 15 15 15 14 13 13 12 12 12 12 13 13 12 12 11 10 11 13 13 16 19
6 6 6 8 10 11 12 10 8 7 7 7 8 9 9 8 7 8 9 9 9 10 9 8 9 11 12 13 15 15 14 13 14 17 20 20 20 19 18 19 20 20 19 18 18 19 20 22 23 22 21 20 18 16 13 11 10 11 13 12 12 12 13 13 13 14 13 12 11 11 11 11 10 9 10 10 9 9 10 10 10 11 10 13 17
4 5 7 8 9 10 11 10 8 5 4 5 7 7 7 7 7 7 7 7 9 9 7 7 9 11 10 10 11 12 12 12 12 14 16 17 17 17 17 17 17 18 17 16 16 16 17 19 20 20 19 20 21 21 19 14 8 6 10 12 11 11 12 12 12 12 12 11 10 9 9 9 9 9 9 10 9 8 8 8 9 10 10 13 16
2 5 7 7 8 9 9 9 9 6 4 4 5 6 6 5 6 8 7 6 7 7 5 6 9 10 9 9 9 9 9 10 11 12 13 14 15 16 17 16 15 15 15 15 14 15 15 16 17 17 18 18 18 20 23 21 14 7 7 8 9 11 12 12 12 12 12 12 11 8 7 8 10 10 9 10 11 11 11 11 10 11 12 14 15
2 5 7 7 7 7 8 9 10 9 8 6 4 4 5 4 5 7 8 7 6 6 6 6 8 8 7 8 8 7 7 8 10 11 10 10 12 14 16 17 15 13 12 12 12 12 13 14 13 14 15 16 16 17 20 21 18 14 12 11 12 12 13 13 14 15 15 13 12 8 5 7 9 8 6 6 8 10 12 13 13 12 12 13 14
2 6 6 5 6 6 7 7 8 9 11 11 5 2 2 3 4 7 9 7 5 6 6 6 7 6 6 7 8 7 5 6 8 10 9 8 9 11 13 15 15 14 12 11 9 9 10 11 11 12 13 13 14 16 18 18 17 15 14 14 14 13 12 12 13 14 15 16 14 10 7 8 10 9 8 7 7 9 11 12 12 11 10 10 10
1 6 6 4 5 6 7 7 7 8 11 13 9 5 5 6 5 5 7 8 7 7 7 6 6 4 5 6 7 6 5 5 7 9 9 8 8 9 11 12 14 13 12 11 10 9 9 9 9 10 10 10 12 16 19 18 16 13 11 12 12 11 11 11 11 10 11 14 15 14 11 11 12 12 11 9 9 8 9 9 9 9 9 8 7
1 6 6 5 5 6 7 8 8 8 10 12 12 11 12 11 8 6 7 9 10 10 9 9 7 3 3 7 8 7 5 5 5 7 8 8 8 8 9 11 12 13 11 11 10 9 8 8 8 8 8 7 9 14 18 18 15 12 10 10 11 11 10 10 9 9 9 10 11 12 12 11 10 11 10 9 8 8 7 6 6 6 7 7 7
2 4 4 5 5 5 5 6 8 10 10 10 11 12 12 12 11 10 10 12 13 13 12 10 7 4 5 7 8 7 6 5 5 6 7 7 7 7 8 9 11 12 11 11 10 9 8 8 7 7 7 7 9 12 14 15 14 13 11 10 9 9 9 9 8 8 9 10 9 9 10 10 9 8 7 7 6 6 6 6 5 4 4 5 6
2 0 2 2 2 4 3 4 6 7 8 9 11 11 11 11 11 11 11 12 14 14 13 10 9 8 8 8 7 7 6 5 5 7 8 7 5 6 8 10 11 11 11 11 10 9 7 7 7 6 7 7 8 8 8 8 10 12 12 11 10 11 11 10 7 5 6 9 10 9 9 9 8 7 5 5 5 4 3 5 6 4 4 5 5
2 3 3 0 4 6 3 2 4 5 6 8 9 9 9 10 11 11 11 11 12 13 13 10 9 9 9 8 7 6 5 5 5 7 8 6 5 5 8 10 10 11 11 11 10 8 7 6 6 5 4 5 4 4 5 6 8 10 12 12 11 11 10 8 6 4 4 7 10 10 10 9 8 6 4 5 5 4 2 3 6 4 3 4 2
3 3 3 2 2 4 2 1 2 3 3 4 5 5 5 5 7 8 8 9 9 11 12 10 9 9 10 10 8 6 5 5 6 6 6 6 5 6 8 9 9 10 10 10 9 8 8 8 7 6 4 2 2 3 5 7 9 11 12 11 10 9 7 6 5 4 4 6 8 9 9 9 8 6 4 4 5 5 3 3 5 4 2 2 1
5 5 5 5 2 3 2 0 1 1 1 1 3 2 1 1 4 5 5 5 7 9 10 9 10 11 11 12 10 6 4 5 5 4 5 6 6 6 7 8 7 8 9 8 8 8 9 9 9 6 4 2 2 2 4 9 12 13 13 10 6 5 5 5 4 4 4 4 5 6 8 10 9 7 5 4 5 5 3 2 2 3 3 2 1
Wind_Direction
47 43 43 45 42 42 46 43 40 38 33 30 28 26 21 17 15 13 10 11 10 7 7 9 11 14 15 14 12 7 360 352 342 333 325 322 313 301 293 284 273 264 256 251 248 246 243 240 238 234 232 232 230 230 229 226 224 220 220 220 219 217 212 207 209 199 200 207 205 203 204 200 193 192 195 197 196 197 200 201 199 196 197 200 200
45 42 44 44 41 43 44 42 43 41 36 33 31 27 24 22 21 18 16 14 11 10 10 10 13 18 17 15 17 17 16 14 8 1 353 343 331 317 303 289 274 260 249 246 241 237 239 241 242 242 241 239 235 234 233 231 226 221 220 221 219 219 218 213 208 193 183 199 202 198 199 197 191 190 196 197 195 195 198 200 200 199 199 202 202
46 44 44 42 40 41 40 40 42 42 39 36 32 29 26 25 25 24 22 17 13 12 11 11 16 20 15 12 16 16 14 15 13 11 10 3 351 335 317 299 284 266 251 249 244 237 235 239 244 248 250 251 245 239 235 231 223 219 224 226 221 220 218 212 206 194 181 188 196 193 193 195 190 186 195 200 195 193 196 199 198 197 200 204 205
49 47 45 42 41 40 39 39 39 40 40 36 32 29 27 27 26 26 27 24 21 19 18 17 20 22 17 13 16 17 14 13 12 10 10 8 4 354 337 321 305 289 271 264 260 252 246 245 248 251 253 255 253 245 237 230 222 219 225 226 221 219 214 208 207 203 192 187 192 195 194 193 190 187 193 199 195 192 195 197 194 194 199 205 208
50 49 47 44 43 42 41 39 38 38 37 35 32 30 28 28 27 26 27 27 27 28 29 26 22 22 20 13 16 19 17 13 11 10 8 5 3 359 352 343 328 312 299 282 269 260 259 259 256 255 254 253 250 246 237 232 228 227 227 223 218 216 210 207 209 207 200 192 188 195 197 195 192 189 192 194 190 189 193 196 195 196 200 204 208
50 52 52 47 44 44 42 40 38 37 35 33 32 30 29 29 27 26 27 28 28 29 32 32 26 23 23 16 16 20 19 15 12 9 7 5 1 358 354 349 340 331 321 304 288 271 264 264 261 257 253 248 244 243 238 229 228 235 232 223 216 213 210 209 208 205 204 199 189 189 194 195 191 184 189 193 188 185 189 192 195 198 200 203 206
50 55 55 50 47 47 45 41 38 37 35 33 32 31 30 29 27 25 25 27 28 27 28 30 28 26 26 22 18 19 19 17 13 9 6 4 1 357 354 349 343 341 336 322 305 289 277 272 267 260 253 247 243 243 236 218 217 232 236 226 216 214 213 210 206 204 205 199 190 186 188 194 193 182 183 193 192 189 186 184 188 195 199 204 205
52 56 57 54 52 52 48 44 43 40 37 34 32 30 29 28 27 25 24 25 27 27 27 26 25 25 25 24 20 18 19 17 12 8 5 2 360 357 355 351 345 339 337 333 319 301 290 280 271 266 261 256 250 245 241 224 215 227 236 229 217 215 215 211 206 205 204 195 187 186 185 189 192 185 180 188 192 193 191 187 187 191 196 204 208
53 54 51 51 53 55 51 48 48 47 43 40 37 34 31 29 27 25 24 24 24 26 27 26 24 23 22 21 19 17 17 15 11 9 6 1 359 358 356 353 349 342 335 333 332 323 307 292 283 284 280 272 263 252 247 237 219 219 231 233 221 212 212 211 205 200 198 191 183 183 185 187 188 185 185 191 193 195 196 193 192 192 194 200 206
54 52 47 44 44 47 49 48 49 48 46 43 40 38 36 34 32 29 26 24 22 23 25 25 25 23 20 20 19 16 15 12 11 12 11 6 2 1 359 357 356 352 343 333 331 332 330 319 307 300 291 283 277 259 246 241 231 227 236 238 228 215 209 207 205 199 196 193 184 179 184 190 189 188 191 196 196 197 198 198 196 193 191 193 200
56 51 48 44 39 39 41 42 43 44 43 41 39 37 37 37 37 35 31 28 25 24 24 25 24 22 21 21 19 16 14 12 12 14 14 12 9 7 8 6 4 2 354 343 336 330 321 321 320 310 296 285 282 269 250 243 238 236 239 239 232 223 213 205 202 199 197 196 190 183 186 193 195 194 194 195 196 198 202 202 197 190 186 186 190
59 54 49 46 41 39 40 41 41 39 37 35 34 32 33 37 39 37 34 32 30 27 25 25 24 21 21 21 20 17 13 13 14 15 16 16 15 15 16 13 8 5 359 350 343 331 316 317 323 321 310 298 292 283 261 247 240 234 236 240 237 229 221 213 206 200 198 198 194 190 191 195 197 197 196 196 198 201 203 204 201 192 186 187 188
64 58 52 48 44 41 41 44 44 41 38 35 33 29 28 32 39 38 35 33 32 30 28 27 25 23 22 22 21 17 14 14 15 15 16 18 20 21 22 17 11 9 7 4 2 353 336 327 328 328 324 317 307 295 278 257 243 232 228 234 238 233 225 221 217 211 205 202 198 198 199 198 198 200 200 200 200 201 201 202 202 198 191 190 193
68 62 56 50 47 44 43 46 47 45 42 39 35 31 28 28 33 38 37 33 32 31 29 27 27 26 25 24 22 19 16 15 15 15 16 19 22 23 24 21 15 14 16 16 15 13 3 349 337 329 326 327 322 309 291 273 252 231 216 213 219 225 222 220 220 217 213 208 205 206 205 203 204 206 205 204 204 205 204 201 199 198 198 199 201
74 67 61 55 50 46 45 48 49 47 46 43 39 35 31 28 27 31 36 36 33 31 29 27 26 26 25 23 21 18 16 15 16 16 15 17 21 23 24 23 17 14 15 14 12 13 9 1 351 336 329 329 328 313 290 277 263 240 218 207 206 212 216 217 217 216 215 213 211 212 211 209 211 211 210 211 211 212 212 205 200 200 202 203 201
78 70 65 60 54 50 48 49 50 48 47 46 42 37 33 30 26 25 32 36 33 30 29 27 24 23 23 22 21 18 17 17 18 18 17 17 19 20 22 22 17 13 13 11 12 14 10 5 359 348 340 333 321 302 282 269 252 238 229 217 208 209 212 215 215 213 211 211 211 213 213 212 212 211 210 211 211 213 210 199 195 199 200 194 186
81 74 68 64 58 54 52 51 50 48 48 49 46 40 35 32 28 26 28 31 29 25 26 28 25 21 21 21 21 19 18 19 20 20 19 18 19 19 19 19 16 15 14 11 13 15 13 10 6 359 353 346 330 311 289 259 232 231 232 221 208 209 213 217 213 207 206 206 206 209 207 203 203 202 201 202 206 208 201 191 191 195 189 179 171
81 76 71 68 63 59 56 53 51 50 51 52 48 43 39 35 32 31 30 29 25 21 22 28 26 22 20 20 19 18 17 18 20 22 21 20 20 19 18 16 15 15 14 12 14 16 15 14 13 9 2 354 344 328 304 274 243 233 230 217 201 200 209 215 209 198 198 198 196 197 192 187 191 194 195 196 198 199 198 199 203 200 185 176 169
81 78 72 72 69 63 58 53 50 51 55 55 48 43 42 40 37 36 34 31 25 21 22 27 27 22 19 18 16 14 12 13 17 21 22 21 20 20 19 17 14 13 12 12 13 16 16 16 16 14 8 358 349 341 326 299 253 232 226 218 208 202 205 209 205 197 193 186 183 185 176 173 183 188 189 194 192 188 193 200 204 203 195 184 171
80 80 74 74 71 62 57 54 49 48 57 58 50 45 44 42 40 39 38 34 29 27 28 30 28 22 17 15 14 12 9 8 12 19 22 22 21 20 21 20 16 12 11 11 12 14 16 17 17 15 10 2 353 345 339 323 247 232 230 225 220 216 208 202 197 193 184 172 168 169 163 168 181 182 182 190 191 186 193 198 196 199 199 189 176
81 81 73 72 70 62 58 58 53 50 55 59 52 46 44 43 41 40 39 36 34 33 33 32 27 21 18 15 13 11 9 8 10 16 21 23 22 21 21 21 18 14 13 14 14 14 14 16 19 18 13 9 3 354 345 331 264 237 231 227 229 226 211 193 188 182 168 157 156 155 156 164 169 165 166 171 178 191 205 212 201 197 197 189 180
80 81 68 64 68 67 62 60 58 57 56 56 51 46 46 47 45 42 40 37 35 33 32 29 26 22 19 17 13 10 10 9 10 14 19 22 24 23 21 19 19 17 16 16 16 17 17 18 21 22 20 17 15 12 3 348 318 269 244 235 233 225 200 179 174 166 151 146 147 143 144 152 148 142 149 149 156 186 205 211 202 200 202 198 190
70 74 65 58 60 69 67 61 62 60 54 53 51 46 46 47 47 45 43 39 36 33 30 27 25 20 17 16 14 10 9 9 11 13 16 20 23 25 22 18 17 18 18 16 16 19 22 24 25 27 28 28 28 27 24 22 19 359 276 228 201 183 172 160 152 145 135 131 133 130 128 133 130 125 130 134 136 147 152 154 171 182 189 189 185
54 56 57 55 55 59 64 67 65 56 49 52 53 46 44 46 48 48 45 42 39 35 31 27 24 19 14 12 12 10 8 9 10 11 13 17 21 24 23 20 18 17 19 19 19 22 26 30 31 32 34 36 38 39 38 38 40 44 64 130 143 144 150 149 141 131 123 115 111 109 109 112 114 113 116 122 124 125 124 122 128 138 141 141 142
47 41 41 45 50 47 47 63 67 51 45 52 53 44 42 44 46 48 48 46 43 38 33 29 24 18 13 10 9 9 8 8 9 10 11 15 20 23 23 21 20 21 22 23 23 23 27 31 34 37 39 41 43 46 46 45 47 49 59 88 114 121 126 133 132 122 112 104 99 98 100 103 108 110 113 117 120 119 117 114 115 119 121 118 116
59 42 35 38 45 41 37 48 62 48 40 49 53 42 39 42 46 48 48 49 47 42 36 31 25 19 15 11 9 9 11 10 9 8 9 12 17 21 22 22 22 24 25 27 29 29 29 32 35 39 42 44 46 47 48 51 54 54 54 62 78 89 94 103 111 110 103 98 97 96 97 103 110 112 111 112 113 113 114 113 110 110 112 110 104
71 57 43 37 41 40 31 31 42 42 34 40 48 45 38 39 44 47 47 48 48 44 38 33 28 20 15 11 9 10 12 12 10 8 8 9 12 16 20 21 22 24 26 28 32 35 35 36 37 38 42 45 48 49 50 53 56 58 57 56 63 72 77 80 87 92 93 94 95 96 99 106 109 109 108 107 107 110 115 115 111 108 108 108 102
59 57 49 37 40 46 32 22 26 36 32 31 37 41 38 37 42 46 46 44 45 44 40 36 31 25 18 13 10 10 12 14 12 9 7 8 7 11 18 20 20 24 27 29 31 35 37 38 38 38 38 40 43 45 48 50 53 57 60 60 62 69 77 79 79 80 83 90 93 93 95 98 98 99 102 104 107 112 116 115 113 112 110 107 102
41 42 39 31 38 51 40 21 22 35 40 36 35 33 32 35 39 42 42 41 42 43 40 36 33 30 27 22 16 12 11 12 13 11 9 7 5 10 19 21 21 25 28 29 31 34 36 37 38 37 36 37 38 40 42 46 49 53 59 63 64 68 74 77 75 73 77 83 87 87 87 87 87 90 94 96 102 111 114 113 112 112 112 110 106
51 41 30 25 34 48 44 30 27 33 37 39 39 33 28 28 30 33 35 35 37 40 38 34 32 31 30 29 25 20 15 10 10 12 12 10 11 19 26 27 26 26 27 28 32 35 36 36 36 36 36 36 37 38 40 43 46 48 53 60 66 69 71 74 75 76 79 81 82 83 83 82 81 83 84 84 89 100 108 111 111 109 107 107 106
65 48 29 27 37 46 44 40 38 35 32 35 39 36 30 25 22 26 30 28 29 33 34 32 33 32 29 27 25 23 17 9 7 11 14 16 21 28 32 32 30 29 28 31 35 38 38 36 35 37 39 40 39 40 43 44 45 47 49 54 60 65 70 73 76 81 84 84 84 85 85 85 84 85 85 83 83 89 97 104 107 105 103 102 103
77 54 32 32 43 47 42 41 44 39 36 38 37 33 31 30 29 32 36 30 25 25 27 30 33 32 27 23 21 21 19 14 11 13 16 20 26 32 33 33 32 30 32 37 40 41 40 39 38 39 42 43 42 42 45 47 48 50 51 52 54 59 64 70 77 83 86 86 87 88 89 90 90 90 94 96 93 90 93 98 101 102 102 103 106
82 53 37 43 52 46 36 42 50 46 40 40 36 32 33 34 33 36 42 38 30 25 26 31 33 30 25 19 17 20 22 21 18 19 21 25 29 33 35 35 34 32 34 39 44 45 43 42 41 42 43 45 45 44 45 48 52 55 56 56 56 58 61 66 72 76 79 83 87 88 89 94 95 93 97 103 100 93 92 95 98 102 106 110 113
71 47 42 55 61 39 25 40 58 53 43 41 38 36 36 33 30 33 41 40 34 29 30 35 33 27 22 18 15 17 22 24 24 23 24 26 28 31 36 38 38 37 36 40 45 47 45 44 42 40 39 41 42 42 45 49 53 58 60 60 60 61 62 64 66 68 70 75 79 81 81 85 90 93 97 101 100 97 97 99 99 102 109 113 113
64 46 48 61 64 42 32 52 69 57 49 49 44 36 34 31 28 32 39 37 30 27 33 41 35 26 22 21 18 15 18 25 28 26 24 23 25 29 34 33 30 29 31 36 44 46 46 47 46 41 38 38 38 42 50 56 58 59 60 61 61 61 61 61 61 62 65 67 69 72 75 77 82 90 95 97 96 94 94 97 96 96 103 111 110
63 48 49 55 59 40 36 62 78 60 55 62 48 35 36 37 30 29 34 29 19 21 35 44 33 25 25 27 26 18 14 22 29 28 24 22 24 30 32 27 23 23 26 31 38 43 45 48 48 47 48 50 50 53 59 62 61 59 59 59 59 58 56 53 50 51 54 58 61 65 72 77 82 87 90 92 94 93 94 97 97 95 101 110 111
53 45 44 39 25 4 2 20 65 64 62 63 48 38 42 41 31 28 29 19 11 17 34 35 23 23 26 28 30 24 16 19 28 28 25 26 30 33 32 28 26 27 28 29 33 38 41 44 46 49 53 55 56 58 58 56 54 52 51 51 52 52 51 50 50 50 53 57 63 68 72 75 78 81 85 88 93 96 97 99 100 101 108 114 112
35 32 29 17 2 353 352 349 8 79 74 67 52 40 37 33 27 24 19 13 16 26 36 27 20 23 25 27 29 27 20 21 28 28 28 31 35 34 33 31 31 31 32 31 33 38 41 41 42 45 46 44 45 49 50 50 47 42 40 43 47 51 54 56 57 57 57 60 64 69 73 77 77 78 81 83 87 92 96 96 95 100 115 124 120
28 15 7 6 3 1 4 11 55 94 83 70 54 37 28 25 23 15 7 10 23 29 27 20 20 22 22 24 29 30 27 29 32 31 31 35 35 32 30 29 29 31 33 34 34 37 39 39 40 42 41 36 33 33 37 43 44 43 46 53 56 56 59 59 56 55 57 61 63 64 68 73 77 77 76 78 82 88 93 95 89 88 106 128 129
29 12 359 2 3 1 10 36 72 93 82 59 43 35 31 29 22 13 11 19 23 20 18 19 18 14 14 20 27 31 34 37 35 30 31 34 35 33 29 26 26 29 30 31 34 35 36 38 40 40 41 42 43 39 35 35 38 43 51 60 61 57 57 56 53 54 61 66 69 72 71 68 70 72 69 69 78 88 90 89 79 71 90 125 133
20 349 347 1 8 2 7 29 54 73 66 37 30 35 40 36 29 25 28 29 24 21 23 23 14 5 3 14 26 33 36 36 31 27 28 30 32 31 27 24 26 29 27 26 30 33 34 38 39 35 34 39 43 43 42 43 47 52 54 58 60 54 49 46 46 49 52 52 53 63 67 63 67 76 75 71 78 87 87 83 74 69 90 126 138
327 320 339 3 14 7 8 16 21 20 13 7 22 38 40 39 42 41 34 25 23 24 20 12 9 5 1 8 23 32 34 33 30 26 24 26 28 30 27 21 22 25 24 25 30 32 32 35 36 34 32 34 36 37 39 42 49 59 57 55 57 50 43 42 45 42 36 28 24 30 49 60 66 74 76 72 74 76 74 74 73 74 90 115 131
300 328 347 8 14 8 9 10 6 1 354 352 14 54 54 59 65 42 23 13 20 24 10 355 1 10 10 12 19 26 27 28 28 26 23 21 23 26 26 22 18 17 16 20 29 32 28 29 33 33 32 32 34 35 34 35 44 58 68 72 74 67 56 52 50 44 38 29 19 16 42 67 68 68 69 71 72 69 67 70 74 76 81 93 105
338 342 348 6 14 10 7 0 354 359 7 11 23 102 67 49 57 36 23 19 21 22 13 357 357 14 24 17 14 17 16 15 20 24 24 18 15 16 18 19 21 21 17 15 19 21 17 19 27 29 25 26 33 35 31 31 41 55 63 67 70 68 60 54 49 44 43 43 40 39 50 63 66 69 74 79 79 72 67 68 69 67 64 69 83
343 350 356 19 26 13 2 351 343 354 18 32 45 46 21 25 39 36 29 29 25 23 19 1 353 15 33 15 5 8 7 1 10 19 20 16 10 8 8 12 18 22 20 15 15 15 6 359 7 16 17 19 29 32 30 33 42 49 48 49 55 59 59 58 54 49 46 49 52 56 60 65 70 75 79 83 82 75 66 64 66 66 61 61 70
358 357 11 36 33 6 351 351 360 17 40 50 47 35 31 36 38 28 26 31 33 30 20 5 355 10 25 7 1 1 357 352 2 16 20 18 14 9 5 7 13 18 16 9 11 19 17 5 2 10 14 14 22 27 27 30 38 45 47 47 50 52 51 46 43 46 53 55 56 55 55 58 65 69 70 74 75 70 61 57 60 68 74 74 74
345 7 30 41 26 353 345 6 25 39 54 54 40 34 40 42 34 28 33 37 35 28 20 17 23 27 9 3 9 16 16 15 19 21 17 14 12 13 12 9 10 14 11 1 359 11 26 24 21 24 24 21 24 26 24 22 23 25 29 33 32 26 20 14 13 30 51 59 62 59 50 44 46 50 52 52 52 51 52 45 39 51 86 88 77
291 145 92 37 322 301 326 28 36 40 55 57 45 40 40 34 29 32 36 34 29 23 20 29 39 28 12 14 26 32 34 37 33 21 12 2 0 17 24 17 9 7 6 360 351 352 6 18 23 32 42 45 41 30 17 8 5 3 3 4 4 1 360 359 2 21 47 55 64 72 61 45 41 45 46 38 29 27 33 27 21 37 117 118 81
231 159 138 333 293 292 306 40 45 44 64 65 53 47 45 38 36 37 34 31 31 23 15 21 34 30 22 23 22 21 31 38 22 11 9 3 357 15 26 22 12 3 1 359 353 349 353 358 357 5 34 54 45 12 352 353 357 352 344 341 344 349 353 1 13 31 48 54 61 68 62 50 45 42 35 25 18 15 21 22 17 27 142 151 98
221 211 219 232 294 309 316 74 60 60 86 66 39 47 62 42 27 27 31 37 36 19 8 16 37 38 29 21 12 8 28 31 18 15 23 22 17 19 22 19 13 8 6 5 2 3 8 7 357 351 1 8 334 314 334 352 355 348 339 334 337 347 355 3 11 21 44 55 55 51 43 35 29 21 16 20 21 16 27 43 37 41 121 160 60
260 264 238 204 210 288 286 16 14 325 246 314 2 40 121 338 352 14 36 46 36 22 21 38 49 40 27 18 10 8 24 27 23 26 24 16 14 15 10 4 3 7 12 12 11 12 17 16 10 7 11 358 297 282 335 354 354 349 346 346 351 359 2 6 9 17 35 43 35 29 28 27 22 13 10 19 25 21 24 43 46 43 47 25 2